Fort Simpson, Northwest Territories

2:41 PM MST on February 27, 2017 (GMT -0700)
Fort Simpson

Weather History for CYFS - September, 2013

Change the Weather History Date:

Sunday, September 8, 2013

  Actual Average Record
Temperature  
Mean Temperature 68 °F -  
Max Temperature 82 °F 51 °F 82 °F (2013)
Min Temperature 53 °F 31 °F 28 °F (1996)
Cooling Degree Days 2    
Growing Degree Days 18 (Base 50)    
Moisture  
Dew Point 52 °F    
Average Humidity 63    
Maximum Humidity 94    
Minimum Humidity 33    
Precipitation  
Precipitation 0.00 in 0.04 in - ()
Sea Level Pressure  
Sea Level Pressure 29.59 in    
Wind  
Wind Speed 3 mph ()    
Max Wind Speed 12 mph    
Max Gust Speed -    
Visibility 15.0 miles    
Events Rain    
Averages and records for this station are not official NWS values.
T = Trace of Precipitation, MM = Missing Value Source: Averaged Metar Reports

Daily Weather History Graph

Daily Weather History Graph

Search for Another Location

Airport or City:

Trip Planner

Search our weather history database for the weather conditions in past years. The results will help you decide how hot, cold, wet, or windy it might be!

Date:

Astronomy

Sep. 08, 2013 Rise Set
Actual Time 7:14 AM MDT 8:49 PM MDT
Civil Twilight 6:27 AM MDT 9:35 PM MDT
Nautical Twilight 5:28 AM MDT 10:33 PM MDT
Astronomical Twilight 4:15 AM MDT 11:45 PM MDT
Moon 11:52 AM MDT (9/8) 9:07 PM MDT (9/8)
Length of Visible Light 15h 07m
Length of Day
13h 35m
Waxing Crescent, 11% of the Moon is Illuminated
Sep 8
Waxing Crescent
Sep 12
First Quarter
Sep 19
Full
Sep 26
Last Quarter
Oct 4
New

Hourly Weather History & Observations

Time (MDT) Temp. Dew Point Humidity Pressure Visibility Wind Dir Wind Speed Gust Speed Precip Events Conditions
12:00 AM 60 °F 55 °F 79% 29.70 in 15 mi Calm Calm - -   Clear
12:00 AM 59.0 °F 55.4 °F 88% 29.70 in 15.0 mi Calm Calm - N/A   Partly Cloudy
1:00 AM 62.6 °F 55.4 °F 77% 29.70 in 15.0 mi SSE 2.3 mph - N/A   Partly Cloudy
2:00 AM 60.8 °F 53.6 °F 77% 29.69 in 15.0 mi SSE 2.3 mph - N/A   Clear
3:00 AM 53.6 °F 51.8 °F 94% 29.69 in 15.0 mi Calm Calm - N/A   Clear
4:00 AM 55.4 °F 51.8 °F 88% 29.68 in 15.0 mi Calm Calm - N/A   Partly Cloudy
5:00 AM 55.4 °F 53.6 °F 94% 29.68 in 15.0 mi Calm Calm - N/A   Partly Cloudy
6:00 AM 58 °F 52 °F 76% 29.67 in 15 mi SE 3.5 mph - -   Partly Cloudy
6:00 AM 59.0 °F 51.8 °F 77% 29.67 in 15.0 mi SE 3.5 mph - N/A   Mostly Cloudy
7:00 AM 57.2 °F 51.8 °F 82% 29.65 in 15.0 mi ESE 3.5 mph - N/A   Scattered Clouds
8:00 AM 59.0 °F 51.8 °F 77% 29.64 in 15.0 mi Calm Calm - N/A   Mostly Cloudy
9:00 AM 59.0 °F 51.8 °F 77% 29.63 in 15.0 mi ESE 3.5 mph - N/A   Mostly Cloudy
10:00 AM 62.6 °F 51.8 °F 68% 29.62 in 15.0 mi ESE 4.6 mph - N/A   Mostly Cloudy
11:00 AM 66.2 °F 53.6 °F 64% 29.60 in 15.0 mi SE 3.5 mph - N/A   Mostly Cloudy
12:00 PM 70 °F 56 °F 51% 29.59 in 15 mi SE 4.6 mph - -   Scattered Clouds
12:00 PM 69.8 °F 55.4 °F 60% 29.59 in 15.0 mi SE 4.6 mph - N/A   Mostly Cloudy
1:00 PM 73.4 °F 55.4 °F 53% 29.56 in 15.0 mi SSE 5.8 mph - N/A   Mostly Cloudy
2:00 PM 77.0 °F 53.6 °F 44% 29.53 in 15.0 mi SSE 5.8 mph - N/A   Mostly Cloudy
3:00 PM 82.4 °F 51.8 °F 35% 29.51 in 15.0 mi SW 9.2 mph - N/A   Mostly Cloudy
4:00 PM 78.8 °F 51.8 °F 39% 29.50 in 15.0 mi WSW 11.5 mph - N/A   Mostly Cloudy
4:40 PM - - N/A% - 15.0 mi WSW 11.5 mph - N/A Rain Light Rain
5:00 PM 77.0 °F 50.0 °F 39% 29.50 in 15.0 mi SW 5.8 mph - N/A   Mostly Cloudy
6:00 PM 74 °F 51 °F 33% 29.51 in 15 mi WSW 9.2 mph - -   Partly Cloudy
6:00 PM 75.2 °F 50.0 °F 41% 29.51 in 15.0 mi WSW 9.2 mph - N/A   Mostly Cloudy
7:00 PM 73.4 °F 51.8 °F 47% 29.48 in 15.0 mi WSW 11.5 mph - N/A   Mostly Cloudy
8:00 PM 69.8 °F 50.0 °F 49% 29.47 in 15.0 mi SW 8.1 mph - N/A   Mostly Cloudy
9:00 PM 66.2 °F 46.4 °F 49% 29.48 in 15.0 mi SW 10.4 mph - N/A   Partly Cloudy
10:00 PM 64.4 °F 46.4 °F 52% 29.48 in 15.0 mi SSW 9.2 mph - N/A   Partly Cloudy
11:00 PM 62.6 °F 46.4 °F 55% 29.48 in 15.0 mi SW 8.1 mph - N/A   Partly Cloudy